Date String (YYYY-MM-DD hh:mm:ss) UTC,Instrument flags,Ambient pressure (hPa),Sample flow (lpm),Bypass flow (lpm),Sample temperature (°C),Ambient temperature (°C),ASC tube jacket temperature (°C),LED temperature (°C),Box temperature (°C),Sample RH (%),Span deviation,Mass concentration (μg/m³),Mass concentration (μg/m³),Mass concentration (μg/m³)
DateTimeUTC,F1_M11,P_M11,Q1_M11,Q2_M11,T1_M11,T2_M11,T3_M11,T4_M11,T5_M11,U1_M11,ZSPAN_M11,X0_M11,X2_M11,X1_M11
2022-09-07 15:00:00,,0834.3,5.01,0.00,29.9,27.7,00.0,38.7,31.7,18.8,0001.4,0029.98,0012.18,0009.75
2022-09-07 15:01:00,,0834.3,5.00,0.00,29.9,28.0,00.0,38.7,31.7,19.0,0001.7,0028.88,0012.06,0009.67
2022-09-07 15:02:00,,0834.3,5.00,0.00,29.9,28.2,00.0,38.7,31.7,18.7,0002.0,0029.07,0012.00,0009.65
2022-09-07 15:03:00,,0834.3,4.98,0.00,29.9,28.4,00.0,38.7,31.8,19.1,0002.3,0029.13,0012.05,0009.67
2022-09-07 15:04:00,,0834.2,5.01,0.00,30.0,28.5,00.0,38.7,31.7,18.9,0002.3,0028.77,0012.08,0009.68
2022-09-07 15:05:00,,0834.3,5.00,0.00,30.0,28.7,00.0,38.7,31.8,18.7,0002.1,0029.05,0011.98,0009.59
2022-09-07 15:06:00,,0834.3,5.00,0.00,30.0,28.8,00.0,38.7,31.9,18.6,0002.4,0028.44,0011.86,0009.49
2022-09-07 15:07:00,,0834.3,5.00,0.00,30.0,28.9,00.0,38.7,31.9,18.8,0002.5,0027.17,0011.84,0009.49
2022-09-07 15:08:00,,0834.3,5.00,0.00,30.0,29.0,00.0,38.7,31.9,18.6,0002.8,0027.08,0011.73,0009.46
2022-09-07 15:09:00,,0834.3,4.99,0.00,30.1,29.0,00.0,38.8,32.0,18.6,0002.8,0027.96,0011.58,0009.39
2022-09-07 15:10:00,,0834.3,5.00,0.00,30.1,28.2,00.0,38.8,31.9,18.5,0002.3,0027.34,0011.62,0009.42
2022-09-07 15:11:00,,0834.3,5.00,0.00,30.0,27.1,00.0,38.8,31.8,18.7,0002.4,0027.32,0011.89,0009.63
2022-09-07 15:12:00,,0834.3,5.01,0.00,30.0,27.0,00.0,38.7,31.7,18.7,0002.2,0027.96,0012.15,0009.85
2022-09-07 15:13:00,,0834.3,5.00,0.00,29.9,27.3,00.0,38.7,31.7,18.7,0002.3,0027.43,0012.40,0010.03
2022-09-07 15:14:00,,0834.3,5.00,0.00,29.9,27.6,00.0,38.7,31.6,18.9,0002.0,0028.24,0012.60,0010.20
2022-09-07 15:15:00,,0834.3,5.00,0.00,29.9,27.8,00.0,38.6,31.6,18.9,0001.7,0029.04,0012.84,0010.40
2022-09-07 15:16:00,,0834.3,5.00,0.00,29.9,28.1,00.0,38.6,31.7,18.9,0001.3,0030.28,0013.15,0010.69
2022-09-07 15:17:00,,0834.3,5.01,0.00,29.9,28.3,00.0,38.6,31.7,18.8,0001.2,0031.96,0013.43,0011.00
2022-09-07 15:18:00,,0834.4,4.99,0.00,29.9,28.5,00.0,38.6,31.8,18.7,0001.0,0033.63,0013.71,0011.32
2022-09-07 15:19:00,,0834.3,5.00,0.00,29.9,28.6,00.0,38.7,31.8,18.5,0001.1,0033.55,0014.03,0011.55
2022-09-07 15:20:00,,0834.3,4.98,0.00,30.0,28.8,00.0,38.7,31.8,18.6,0001.3,0033.74,0014.44,0011.82
2022-09-07 15:21:00,,0834.3,5.01,0.00,30.0,28.9,00.0,38.7,31.9,18.7,0001.8,0034.51,0014.75,0012.04
2022-09-07 15:22:00,,0834.3,4.99,0.00,30.0,29.0,00.0,38.7,31.9,18.5,0002.2,0034.25,0014.90,0012.17
2022-09-07 15:23:00,,0834.3,5.02,0.00,30.0,29.0,00.0,38.7,32.0,18.2,0002.2,0033.38,0014.85,0012.19
2022-09-07 15:24:00,,0834.3,4.98,0.00,30.1,28.0,00.0,38.7,31.9,18.1,0002.0,0033.95,0014.89,0012.18
2022-09-07 15:25:00,,0834.3,5.01,0.00,30.0,27.0,00.0,38.7,31.7,18.3,0002.0,0033.66,0014.91,0012.19
2022-09-07 15:26:00,,0834.3,5.00,0.00,30.0,27.1,00.0,38.7,31.7,18.5,0002.2,0033.80,0014.89,0012.24
2022-09-07 15:27:00,,0834.3,5.00,0.00,29.9,27.3,00.0,38.6,31.7,18.5,0002.6,0033.42,0014.92,0012.34
2022-09-07 15:28:00,,0834.3,4.99,0.00,29.9,27.7,00.0,38.6,31.6,18.5,0003.4,0033.02,0015.00,0012.40
2022-09-07 15:29:00,,0834.3,5.02,0.00,29.9,27.9,00.0,38.6,31.7,18.6,0003.6,0032.16,0015.09,0012.46
2022-09-07 15:30:00,,0834.3,5.00,0.00,29.9,28.2,00.0,38.6,31.7,18.7,0003.8,0032.13,0015.13,0012.53
2022-09-07 15:31:00,,0834.3,5.00,0.00,29.9,28.4,00.0,38.6,31.7,18.7,0003.6,0031.09,0015.08,0012.58
2022-09-07 15:32:00,,0834.3,5.00,0.00,29.9,28.5,00.0,38.6,31.7,18.5,0003.4,0033.08,0015.08,0012.61
2022-09-07 15:33:00,,0834.3,5.00,0.00,29.9,28.7,00.0,38.6,31.8,18.9,0002.7,0034.40,0015.09,0012.66
2022-09-07 15:34:00,,0834.3,5.00,0.00,30.0,28.8,00.0,38.7,31.9,19.6,0002.2,0035.26,0015.14,0012.70
2022-09-07 15:35:00,,0834.3,4.99,0.00,30.0,28.9,00.0,38.7,31.9,19.4,0001.9,0036.07,0015.26,0012.78
2022-09-07 15:36:00,,0834.3,5.01,0.00,30.0,28.8,00.0,38.7,31.9,19.7,0002.0,0035.93,0015.40,0012.90
2022-09-07 15:37:00,,0834.3,5.00,0.00,30.0,27.7,00.0,38.7,31.9,19.5,0001.7,0036.69,0015.59,0013.02
2022-09-07 15:38:00,,0834.3,5.00,0.00,30.0,26.9,00.0,38.7,31.7,19.3,0001.4,0036.47,0015.62,0013.02
2022-09-07 15:39:00,,0834.3,5.00,0.00,29.9,27.1,00.0,38.6,31.7,18.8,0000.9,0035.92,0015.55,0012.96
2022-09-07 15:40:00,,0834.3,4.99,0.00,29.9,27.3,00.0,38.6,31.6,19.3,0000.5,0035.63,0015.45,0012.92
2022-09-07 15:41:00,,0834.3,5.02,0.00,29.9,27.7,00.0,38.6,31.6,19.5,0000.3,0035.15,0015.37,0012.86
2022-09-07 15:42:00,,0834.3,5.00,0.00,29.9,27.9,00.0,38.6,31.7,19.3,0000.4,0034.85,0015.29,0012.83
2022-09-07 15:43:00,,0834.3,5.00,0.00,29.9,28.2,00.0,38.6,31.7,19.1,0000.9,0034.05,0015.25,0012.78
2022-09-07 15:44:00,,0834.3,5.01,0.00,29.9,28.4,00.0,38.6,31.7,19.0,0001.0,0033.18,0015.24,0012.71
2022-09-07 15:45:00,,0834.3,4.99,0.00,29.9,28.5,00.0,38.6,31.8,18.8,0001.1,0032.84,0015.21,0012.68
2022-09-07 15:46:00,,0834.3,5.00,0.00,29.9,28.7,00.0,38.6,31.8,18.7,0001.3,0033.70,0015.08,0012.67
2022-09-07 15:47:00,,0834.3,4.99,0.00,29.9,28.8,00.0,38.6,31.9,19.2,0001.8,0033.68,0014.97,0012.65
2022-09-07 15:48:00,,0834.3,5.01,0.00,30.0,28.9,00.0,38.7,31.9,19.4,0002.3,0032.58,0014.91,0012.66
2022-09-07 15:49:00,,0834.3,4.99,0.00,30.0,28.0,00.0,38.7,31.9,19.5,0002.8,0031.57,0014.94,0012.71
2022-09-07 15:50:00,,0834.3,4.98,0.00,29.9,26.9,00.0,38.6,31.7,19.4,0003.2,0031.26,0014.97,0012.75
2022-09-07 15:51:00,,0834.3,5.00,0.00,29.9,26.9,00.0,38.6,31.7,19.4,0003.0,0031.25,0015.03,0012.77
2022-09-07 15:52:00,,0834.3,5.00,0.00,29.9,27.2,00.0,38.6,31.6,19.5,0003.2,0030.52,0015.03,0012.80
2022-09-07 15:53:00,,0834.3,5.01,0.00,29.8,27.5,00.0,38.5,31.5,19.2,0003.5,0029.50,0015.06,0012.83
2022-09-07 15:54:00,,0834.3,5.00,0.00,29.8,27.8,00.0,38.5,31.6,19.7,0003.6,0028.98,0015.11,0012.88
2022-09-07 15:55:00,,0834.3,5.01,0.00,29.8,28.1,00.0,38.5,31.6,19.8,0003.7,0028.30,0015.12,0012.94
2022-09-07 15:56:00,,0834.3,4.99,0.00,29.8,28.3,00.0,38.6,31.7,19.2,0003.8,0027.79,0015.13,0012.98
2022-09-07 15:57:00,,0834.3,5.02,0.00,29.8,28.5,00.0,38.6,31.7,19.5,0003.6,0026.34,0015.29,0013.03
2022-09-07 15:58:00,,0834.3,4.99,0.00,29.9,28.6,00.0,38.6,31.8,19.2,0003.0,0025.66,0015.31,0013.07
2022-09-07 15:59:00,,0834.3,5.02,0.00,29.9,28.8,00.0,38.6,31.8,18.8,0002.6,0025.90,0015.37,0013.10
